Location: Innsbruck
(47.2657°N, 11.3914°E)
Time: 07:58:06
(UTC+02:00)

Envisat - Pass Details

Date: 01 October 2021
Orbit: 764 x 766 km, 98.2° (Epoch: 23 October)

Event Time Altitude Azimuth Distance (km) Brightness Sun altitude
Rises 05:33:19 0° 23° (NNE) 3,242 6.8 -17.6°
Reaches altitude 10° 05:35:58 10° 35° (NE) 2,311 6.2 -17.2°
Maximum altitude 05:40:18 27° 94° (E) 1,431 5.2 -16.5°
Drops below altitude 10° 05:44:34 10° 152° (SSE) 2,295 5.7 -15.8°
Sets 05:47:11 0° 164° (SSE) 3,216 6.3 -15.4°
